Home   Weather   Euskirchen   Past weeks

Flag for Germany Past Weather in Euskirchen, North Rhine-Westphalia, Germany — Yesterday and Last 2 Weeks

Now
68 °F

Light rain. Broken clouds.


Feels Like: 68 °F
Forecast: 58 / 69 °F
Wind: 7 mph from Southeast

Location: Noervenich

Current Time: Jun 28, 2017 at 12:42:47 pm

Latest Report: Jun 28, 2017 at 11:20 am


Visibility: N/A

Pressure: 29.45 "Hg

Humidity: 83%

Dew Point: 63 °F

Location of EuskirchenLocation

Past Weather in Euskirchen — Graph

°F

Euskirchen Temperature Yesterday

Maximum temperature yesterday: 73 °F (at 6:20 pm)
Minimum temperature yesterday: 59 °F (at 4:20 am)
Average temperature yesterday: 66 °F

High & Low Weather Summary for the Past Weeks

 TemperatureHumidityPressure
High95 °F (Jun 22, 1:20 pm)94% (Jun 14, 4:20 am)30.18 "Hg (Jun 14, 4:20 am)
Low48 °F (Jun 14, 6:20 am)25% (Jun 19, 5:20 pm)29.45 "Hg (Jun 28, 10:20 am)
Average70 °F59%29.96 "Hg
* Reported Jun 13 11:20 am — Jun 28 11:20 am, Euskirchen. Weather by CustomWeather, © 2017

Note: Actual official high and low records may vary slightly from our data, if they occured in-between our weather recording intervals... More about our weather records

Advertising

Euskirchen Weather History for the Previous 24 Hours

Scroll right to see more
 ConditionsComfort  
Time TempWeatherWind HumidityBarometerVisibility
11:20 am
Wed, Jun 28
68 °FLight rain. Broken clouds.7 mph83%29.45 "HgN/A
10:20 am66 °FBroken clouds.8 mph88%29.45 "HgN/A
9:20 am64 °FBroken clouds.6 mph94%29.47 "HgN/A
8:20 am64 °FBroken clouds.6 mph88%29.47 "HgN/A
7:20 am63 °FLight rain. Broken clouds.3 mph94%29.47 "HgN/A
6:20 am63 °FRain. Partly sunny.3 mph94%29.47 "Hg5 mi
5:20 am66 °FPassing clouds.6 mph78%29.47 "HgN/A
4:20 am66 °FPassing clouds.3 mph88%29.47 "HgN/A
3:20 am66 °FPassing clouds.3 mph88%29.50 "HgN/A
2:20 am66 °FPassing clouds.6 mph88%29.53 "HgN/A
1:20 am66 °FPartly cloudy.5 mph88%29.56 "HgN/A
12:20 am66 °FPassing clouds.5 mph88%29.59 "HgN/A
11:20 pm
Tue, Jun 27
68 °FPassing clouds.6 mph83%29.59 "HgN/A
10:20 pm68 °FPassing clouds.5 mph78%29.62 "HgN/A
9:20 pm70 °FLight rain. Broken clouds.6 mph73%29.62 "HgN/A
8:20 pm72 °FBroken clouds.8 mph69%29.62 "HgN/A
7:20 pm72 °FLight rain. Partly sunny.9 mph69%29.65 "HgN/A
6:20 pm73 °FPartly sunny.10 mph61%29.68 "HgN/A
5:20 pm72 °FBroken clouds.7 mph65%29.71 "HgN/A
5:00 pm72 °FPartly sunny.8 mph65%29.71 "HgN/A
4:20 pm72 °FPartly sunny.8 mph65%29.71 "HgN/A
3:20 pm70 °FLight rain. Mostly cloudy.6 mph69%29.74 "HgN/A
2:20 pm68 °FPartly sunny.9 mph73%29.77 "HgN/A
1:20 pm68 °FBroken clouds.8 mph69%29.80 "HgN/A
12:20 pm68 °FBroken clouds.6 mph69%29.80 "HgN/A
Weather by CustomWeather, © 2017

See weather overviewHow to use our weather pages